Find OneWeb SL0567

NORAD ID: 55147 Int'l Des: 2023-004 Owner: ONEWEBN Country: UK Constellation: oneweb operational
LEOCIRCULARPOLARONEWEB_TYPE

リアルタイム位置

3D地球を読み込み中...

OneWeb SL0567について

説明を読み込み中...

次回通過

Passes for default location (London). Set your location on the main map for personalized predictions.

高度履歴

Loading altitude history...

軌道要素

1 55147U 23004H 26127.16356186 .00000035 00000-0 56153-4 0 9997
2 55147 87.9183 343.6359 0001493 79.2490 280.8811 13.18683815164295
Epoch: May 7, 2026 • Age: 12 hours

現在のステータス

高度 1217.9 km
速度 7.24 km/s
衛星直下点 -73.41°S, 63°E
打ち上げ日 Jan 10, 2023
運用期間 3.3 years
タイプ internet

技術仕様

分類 Payload
質量 148.00 kg
乾燥質量 140.00 kg
総質量 148.00 kg
長さ 1.30 m
直径 1.00 m
スパン 5.00 m
形状 Trapezoid+2 pan
製造者 ONEWUS
バスタイプ ARROW
フェーズステータス In Orbit
所有者/国 ONEWEBN/UK

Most Searched